Tracking 27111 objects as of 28-Mar-2023
HD Live streaming from Space Station
objects crossing your sky now

STARLINK-5579

Track STARLINK-5579 now!
10-day predictions
STARLINK-5579 is classified as:


NORAD ID: 55746
Int'l Code: 2023-028F
Perigee: 384.7 km
Apogee: 389.0 km
Inclination: 70.0 °
Period: 92.1 minutes
Semi major axis: 6757 km
RCS: Unknown
Launch date: March 3, 2023
Source: United States (US)
Launch site: AIR FORCE WESTERN TEST RANGE (AFWTR)
Your satellite tracking list
Your tracking list is empty




NASA's NSSDC Master Catalog

Two Line Element Set (TLE):
1 55746U 23028F   23087.58334491 -.00959060  00000-0 -11735-1 0  9998
2 55746  70.0009  85.4696 0003145 271.2972 286.4389 15.62757046  4564
Source of the keplerian elements: AFSPC